Location: 476 Grange Obs.
(45.1421°N, 7.1417°E)
Time: 20:05:12
(UTC+02:00)

Envisat - Visible Passes

Search period start: 21 October 2019 00:00
Search period end: 30 October 2019 23:00
Orbit: 764 x 766 km, 98.1° (Epoch: 21 October)

Date Brightness Start Highest point End Pass type
(mag) Time Alt. Az. Time Alt. Az. Time Alt. Az.
21 Oct 5.3 20:34:35 10° SSW 20:38:45 25° W 20:42:56 10° NW visible
22 Oct 6.4 07:03:28 10° ENE 07:05:35 12° E 07:07:41 10° ESE visible
22 Oct 3.8 19:56:48 10° S 20:01:45 53° W 20:06:45 10° NNW visible
23 Oct 2.9 19:19:55 10° SSE 19:24:58 73° ENE 19:30:03 10° N visible
23 Oct 6.0 21:01:42 10° WSW 21:04:32 15° W 21:07:23 10° NW visible
24 Oct 6.0 07:27:31 10° NE 07:31:23 22° E 07:35:15 10° SE visible
24 Oct 4.9 20:22:54 10° SSW 20:27:23 31° W 20:31:55 10° NNW visible
25 Oct 3.4 19:45:25 10° S 19:50:28 67° WSW 19:55:33 10° NNW visible
26 Oct 3.0 19:08:45 10° SSE 19:13:43 58° ENE 19:18:43 10° N visible
26 Oct 5.7 20:49:37 10° SW 20:53:08 19° W 20:56:40 10° NW visible
27 Oct 6.1 06:16:41 10° NE 06:20:01 17° E 06:23:19 10° SE visible
27 Oct 4.4 19:11:20 10° SSW 19:16:03 39° W 19:20:49 10° NNW visible
28 Oct 3.1 18:34:06 10° SSE 18:39:11 84° WSW 18:44:18 10° NNW visible
28 Oct 6.3 20:18:02 10° W 20:18:58 10° W 20:19:55 10° WNW visible
29 Oct 3.3 17:57:40 10° SE 18:02:30 47° ENE 18:07:22 10° N visible
29 Oct 5.4 19:37:45 10° SW 19:41:45 23° W 19:45:47 10° NW visible
30 Oct 6.3 06:06:04 10° ENE 06:08:36 14° E 06:11:08 10° ESE visible
30 Oct 4.0 18:59:50 10° S 19:04:44 49° W 19:09:41 10° NNW visible
